This demonstration page uses our WeatherBlox Daily Observations layout. Learn more.

Left ArrowRight Arrow

Hourly Observations for July 23, 2022

Temp ( °F °C ) Dew Point ( °F °C ) Humidity (%) Winds ( mph kmh ) Pressure ( in mb ) Visibility ( mi km ) Precip ( " mm )
12:15 am 00:15 Clear 79 26 72 22 79 79 Calm 30.00 1016 10 16 0.00 0.00
12:35 am 00:35 Clear 79 26 72 22 79 79 Calm 30.00 1016 10 16 0.00 0.00
12:55 am 00:55 Clear 79 26 73 23 84 84 Calm 30.00 1016 10 16 0.00 0.00
1:15 am 01:15 Clear 77 25 73 23 89 89 WSW 3 6 30.01 1016 10 16 0.00 0.00
1:35 am 01:35 Clear 77 25 72 22 83 83 W 5 7 30.01 1016 10 16 0.00 0.00
1:55 am 01:55 Clear 77 25 72 22 83 83 Calm 30.01 1016 10 16 0.00 0.00
2:15 am 02:15 Clear 77 25 70 21 79 79 Calm 30.01 1016 10 16 0.00 0.00
2:35 am 02:35 Clear 77 25 72 22 83 83 SSW 6 9 30.01 1016 10 16 0.00 0.00
2:55 am 02:55 Clear 77 25 70 21 79 79 Calm 30.01 1016 10 16 0.00 0.00
3:15 am 03:15 Clear 77 25 70 21 79 79 Calm 30.01 1016 10 16 0.00 0.00
3:35 am 03:35 Clear 77 25 70 21 79 79 Calm 30.01 1016 10 16 0.00 0.00
3:55 am 03:55 Clear 77 25 70 21 79 79 Calm 30.02 1017 10 16 0.00 0.00
4:15 am 04:15 Clear 77 25 70 21 79 79 Calm 30.02 1017 10 16 0.00 0.00
4:35 am 04:35 Clear 77 25 68 20 74 74 NW 5 7 30.03 1017 10 16 0.00 0.00
4:55 am 04:55 Clear 75 24 68 20 78 78 NW 5 7 30.04 1017 10 16 0.00 0.00
5:15 am 05:15 Clear 75 24 68 20 78 78 WNW 3 6 30.04 1017 10 16 0.00 0.00
5:35 am 05:35 Clear 73 23 68 20 83 83 NW 3 6 30.04 1017 10 16 0.00 0.00
5:55 am 05:55 Clear 75 24 68 20 78 78 NW 6 9 30.05 1017 10 16 0.00 0.00
6:15 am 06:15 Sunny 75 24 68 20 78 78 Calm 30.05 1017 10 16 0.00 0.00
6:35 am 06:35 Sunny 75 24 68 20 78 78 NW 5 7 30.06 1018 10 16 0.00 0.00
6:55 am 06:55 Sunny 77 25 68 20 74 74 WNW 3 6 30.06 1018 10 16 0.00 0.00
7:15 am 07:15 Sunny 79 26 68 20 70 70 WNW 3 6 30.06 1018 10 16 0.00 0.00
7:35 am 07:35 Sunny 79 26 70 21 74 74 NW 6 9 30.06 1018 10 16 0.00 0.00
7:55 am 07:55 Sunny 81 27 70 21 70 70 WNW 6 9 30.06 1018 10 16 0.00 0.00
8:15 am 08:15 Sunny 81 27 70 21 70 70 WNW 7 11 30.07 1018 10 16 0.00 0.00
8:35 am 08:35 Sunny 82 28 72 22 70 70 NW 8 13 30.06 1018 10 16 0.00 0.00
8:55 am 08:55 Sunny 84 29 72 22 66 66 WNW 3 6 30.07 1018 10 16 0.00 0.00
9:15 am 09:15 Sunny 86 30 73 23 66 66 WNW 7 11 30.06 1018 10 16 0.00 0.00
9:35 am 09:35 Sunny 86 30 72 22 62 62 NW 7 11 30.07 1018 10 16 0.00 0.00
9:55 am 09:55 Sunny 86 30 73 23 66 66 WNW 9 15 30.07 1018 10 16 0.00 0.00
10:15 am 10:15 Sunny 86 30 73 23 66 66 WNW 7 11 30.07 1018 10 16 0.00 0.00
10:35 am 10:35 Sunny 88 31 73 23 62 62 W 7 11 30.07 1018 10 16 0.00 0.00
10:55 am 10:55 Sunny 88 31 72 22 59 59 WNW 8 13 30.07 1018 10 16 0.00 0.00
11:15 am 11:15 Sunny 88 31 72 22 59 59 W 6 9 30.08 1019 10 16 0.00 0.00
11:35 am 11:35 Sunny 90 32 70 21 52 52 WSW 5 7 30.07 1018 10 16 0.00 0.00
11:55 am 11:55 Sunny 90 32 70 21 52 52 WNW 5 7 30.08 1018 10 16 0.00 0.00
12:15 pm 12:15 Sunny 90 32 70 21 52 52 Calm 30.08 1018 10 16 0.00 0.00
12:35 pm 12:35 Sunny 90 32 70 21 52 52 WNW 3 6 30.07 1018 10 16 0.00 0.00
12:55 pm 12:55 Sunny 91 33 66 19 44 44 Calm 30.06 1018 N/A 0.00 0.00
1:15 pm 13:15 Sunny 91 33 70 21 49 49 NW 8 13 30.06 1018 N/A 0.00 0.00
1:35 pm 13:35 Sunny 91 33 68 20 46 46 Calm 30.06 1018 N/A 0.00 0.00
1:55 pm 13:55 Sunny 91 33 70 21 49 49 Calm 30.06 1018 N/A 0.00 0.00
2:15 pm 14:15 Sunny 91 33 66 19 44 44 WSW 7 11 30.05 1018 N/A 0.00 0.00
2:35 pm 14:35 Sunny 95 35 66 19 39 39 SSW 8 13 30.04 1017 10 16 0.00 0.00
2:55 pm 14:55 Sunny 95 35 63 17 34 34 SSW 7 11 30.04 1017 10 16 0.00 0.00
3:15 pm 15:15 Sunny 95 35 64 18 36 36 S 7 11 30.02 1017 10 16 0.00 0.00
3:35 pm 15:35 Sunny 95 35 68 20 41 41 WSW 7 11 30.02 1017 10 16 0.00 0.00
3:55 pm 15:55 Sunny 95 35 68 20 41 41 SSW 8 13 30.01 1016 10 16 0.00 0.00
4:15 pm 16:15 Sunny 95 35 72 22 47 47 SSW 6 9 30.00 1016 10 16 0.00 0.00
4:35 pm 16:35 Sunny 95 35 72 22 47 47 SSW 7 11 29.99 1016 10 16 0.00 0.00
4:55 pm 16:55 Sunny 95 35 68 20 41 41 SW 10 17 29.99 1016 10 16 0.00 0.00
5:15 pm 17:15 Sunny 95 35 68 20 41 41 W 8 13 30.01 1016 10 16 0.00 0.00
5:35 pm 17:35 Sunny 95 35 70 21 44 44 SSW 9 15 30.00 1016 10 16 0.00 0.00
5:55 pm 17:55 Sunny 95 35 68 20 41 41 SSW 8 13 29.99 1016 10 16 0.00 0.00
6:15 pm 18:15 Sunny 93 34 70 21 47 47 SSW 8 13 30.00 1016 10 16 0.00 0.00
6:35 pm 18:35 Sunny 91 33 68 20 46 46 SW 7 11 30.02 1017 10 16 0.00 0.00
6:55 pm 18:55 Sunny 90 32 70 21 52 52 WSW 3 6 30.04 1017 10 16 0.00 0.00
7:15 pm 19:15 Sunny 88 31 70 21 55 55 WNW 9 15 30.06 1018 10 16 0.00 0.00
7:35 pm 19:35 Partly Cloudy 81 27 68 20 66 66 NNW 25 41 30.10 1019 10 16 0.00 0.00
7:55 pm 19:55 Mostly Cloudy 79 26 68 20 70 70 NNW 18 30 30.13 1020 10 16 0.00 0.00
8:15 pm 20:15 Mostly Cloudy with Light Rain 73 23 70 21 89 89 NNW 6 9 30.14 1021 10 16 0.00 0.00
8:35 pm 20:35 Partly Cloudy with Light Rain 73 23 70 21 89 89 NNW 9 15 30.13 1020 10 16 0.00 0.00
8:55 pm 20:55 Partly Cloudy with Light Rain 73 23 70 21 89 89 Calm 30.11 1020 10 16 0.00 0.00
9:15 pm 21:15 Partly Cloudy with Light Rain 73 23 70 21 89 89 ENE 3 6 30.08 1019 10 16 0.00 0.00
9:35 pm 21:35 Partly Cloudy 73 23 70 21 89 89 WNW 6 9 30.08 1019 10 16 0.00 0.00
9:55 pm 21:55 Partly Cloudy 73 23 70 21 89 89 SSW 6 9 30.08 1019 10 16 0.00 0.00
10:15 pm 22:15 Clear 73 23 70 21 89 89 Calm 30.08 1019 10 16 0.00 0.00
10:35 pm 22:35 Clear 72 22 70 21 94 94 Calm 30.07 1018 10 16 0.00 0.00
10:55 pm 22:55 Clear 73 23 70 21 89 89 SSE 3 6 30.07 1018 10 16 0.00 0.00
11:15 pm 23:15 Clear 73 23 70 21 89 89 Calm 30.07 1018 10 16 0.00 0.00
11:35 pm 23:35 Clear 72 22 70 21 94 94 Calm 30.06 1018 10 16 0.00 0.00
11:55 pm 23:55 Clear 72 22 70 21 94 94 S 6 9 30.07 1018 10 16 0.00 0.00

Powered by AerisWeather